Find Starlink 11431

NORAD ID: 62890 Int'l Des: 2025-024 Owner: SPXS Country: US Constellation: starlink operational
LEOCIRCULAR

Current View

Loading 3D Globe...

About Starlink 11431

Starlink 11431 (NORAD 62890) is a starlink constellation satellite (v2 mini d2c) launched Feb 4, 2025 by SPXS of US. It operates in LEO, CIRCULAR orbit with a mass of 960.00 kg.

About Starlink 11431

Description loading...

Upcoming Passes

Passes for default location (London). Set your location on the main map for personalized predictions.

Altitude History

Loading altitude history...

Two-Line Element Set

1 62890U 25024M 26171.32565153 .00175734 00000-0 13391-2 0 9991
2 62890 42.9997 283.2378 0001455 244.3284 115.7434 15.70932510 79602
Epoch: Jun 20, 2026 • Age: 25 hours

Current Status

Altitude 359.2 km
Velocity 7.69 km/s
Sub-Earth Point -20.97°S, 74.57°E
Launch Date Feb 4, 2025
Age 1.3 years
Type internet

Technical Details

Classification Payload
Mass 960.00 kg
Dry Mass 910.00 kg
Total Mass 960.00 kg
Length 0.30 m
Diameter 4.10 m
Span 29.00 m
Shape Box + pan
Manufacturer SPXS
Bus Type Starlink V2MD
Phase Status In Orbit
Owner/State SPXS/US

Most Searched